User: anonymous   Login
Location: Molalla
(45.1473°N, 122.5770°W)
Time: 11:18:40
(UTC-08:00)
Language:

Transit 2A Rocket - Orbit

View from above orbital plane
View from above orbital plane
View from above satellite
View from above satellite

Ground track
Ground track

The orbit data is extracted from the following two-line orbital elements,

1    47U 60007C   19314.70939797 -.00000032  00000-0  17789-4 0  9995
2    47  66.6677  22.5526 0220581 104.5717 257.9962 14.42057536103445
Epoch (UTC): 10 November 2019 17:01:31
Eccentricity: 0.0220581
inclination: 66.6677°
perigee height: 594 km
apogee height: 909 km
right ascension of ascending node: 22.5526°
argument of perigee: 104.5717°
revolutions per day: 14.42057536
mean anomaly at epoch: 257.9962°
orbit number at epoch: 10344

The dashed part of the orbit path shows where the satellite is in the earth's shadow,  

DLR